Trinidad, CO

11:46 AM MDT on May 21, 2018 (GMT -0600)
Stokes

Weather History for KTAD - December, 2011

Change the Weather History Date:

Monday, December 5, 2011

  Actual Average Record
Temperature  
Mean Temperature 4 °F 33 °F  
Max Temperature 17 °F 47 °F 71 °F (2012)
Min Temperature -9 °F 18 °F -10 °F (1972)
Degree Days  
Heating Degree Days 61 32  
Month to date heating degree days 231 158  
Since 1 July heating degree days 1359 1391  
Cooling Degree Days 0 0  
Month to date cooling degree days 0 0  
Year to date cooling degree days 1118 719  
Moisture  
Dew Point 4 °F    
Average Humidity 84    
Maximum Humidity 95    
Minimum Humidity 72    
Precipitation  
Precipitation 0.00 in 0.02 in 0.29 in (1969)
Month to date precipitation 0.26 0.10  
Year to date precipitation 9.18 13.40  
Sea Level Pressure  
Sea Level Pressure 30.35 in    
Wind  
Wind Speed 6 mph (NNE)    
Max Wind Speed 20 mph    
Max Gust Speed 22 mph    
Visibility 5 miles    
Events Snow    
T = Trace of Precipitation, MM = Missing Value Source: NWS Daily Summary

Daily Weather History Graph

Daily Weather History Graph

Search for Another Location

Airport or City:

Astronomy

Dec. 05, 2011 Rise Set
Actual Time 6:56 AM MST 4:39 PM MST
Civil Twilight 6:27 AM MST 5:08 PM MST
Nautical Twilight 5:54 AM MST 5:40 PM MST
Astronomical Twilight 5:23 AM MST 6:12 PM MST
Moon 1:34 PM MST (12/5) 2:24 AM MST (12/5)
Length of Visible Light 10h 41m
Length of Day
9h 43m
Waxing Gibbous, 80% of the Moon is Illuminated
Dec 5
Waxing Gibbous
Dec 10
Full
Dec 17
Last Quarter
Dec 24
New
Dec 31
First Quarter

Hourly Weather History & Observations

Time (MST) Temp. Windchill Dew Point Humidity Pressure Visibility Wind Dir Wind Speed Gust Speed Precip Events Conditions
12:09 AM 17.6 °F 5.0 °F 14.0 °F 86% 30.22 in 1.0 mi NE 11.5 mph - 0.00 in Snow Light Snow
12:54 AM 16.0 °F 2.9 °F 12.9 °F 88% 30.37 in 1.8 mi NNE 11.5 mph - 0.00 in Snow Light Snow
1:35 AM 15.8 °F 4.2 °F 12.2 °F 86% 30.23 in 1.0 mi North 9.2 mph - 0.00 in Snow Light Snow
1:44 AM 15.8 °F 2.7 °F 12.2 °F 86% 30.23 in 0.8 mi North 11.5 mph - 0.00 in Snow Light Snow
1:54 AM 16.0 °F 2.9 °F 12.0 °F 84% 30.38 in 0.8 mi North 11.5 mph - 0.00 in Snow Light Snow
1:58 AM 15.8 °F 2.1 °F 12.2 °F 86% 30.24 in 1.0 mi NNE 12.7 mph - 0.00 in Snow Light Snow
2:27 AM 14.0 °F -3.0 °F 10.4 °F 86% 30.25 in 1.0 mi North 18.4 mph - 0.00 in Snow Light Snow
2:54 AM 12.9 °F -2.2 °F 9.0 °F 84% 30.41 in 1.2 mi North 13.8 mph - 0.00 in Snow Light Snow
3:06 AM 12.2 °F -2.5 °F 8.6 °F 85% 30.24 in 1.2 mi North 12.7 mph - 0.00 in Snow Light Snow
4:17 AM 10.4 °F -3.3 °F 6.8 °F 85% 30.26 in 2.0 mi North 10.4 mph - 0.00 in Snow Light Snow
4:42 AM 10.4 °F -4.8 °F 6.8 °F 85% 30.26 in 1.8 mi North 12.7 mph - 0.00 in Snow Light Snow
4:54 AM 10.9 °F -1.8 °F 6.1 °F 81% 30.44 in 1.8 mi North 9.2 mph - 0.00 in Snow Light Snow
5:11 AM 10.4 °F -1.5 °F 6.8 °F 85% 30.28 in 2.0 mi North 8.1 mph - 0.00 in Snow Light Snow
5:28 AM 10.4 °F -0.4 °F 6.8 °F 85% 30.28 in 3.0 mi North 6.9 mph - 0.00 in Snow Light Snow
5:39 AM 10.4 °F -1.5 °F 6.8 °F 85% 30.28 in 2.5 mi North 8.1 mph - 0.00 in Snow Light Snow
5:54 AM 10.0 °F -0.9 °F 6.1 °F 84% 30.47 in 2.5 mi North 6.9 mph - 0.00 in Snow Light Snow
6:10 AM 10.4 °F 2.2 °F 6.8 °F 85% 30.29 in 1.8 mi North 4.6 mph - 0.00 in Snow Light Snow
6:31 AM 10.4 °F 4.0 °F 6.8 °F 85% 30.30 in 2.0 mi North 3.5 mph - 0.00 in Snow Light Snow
6:42 AM 10.4 °F 4.0 °F 6.8 °F 85% 30.30 in 1.8 mi North 3.5 mph - 0.00 in Snow Light Snow
6:54 AM 10.0 °F 1.8 °F 6.1 °F 84% 30.48 in 1.8 mi North 4.6 mph - 0.00 in Snow Light Snow
7:54 AM 10.0 °F 3.6 °F 6.1 °F 84% 30.49 in 1.8 mi NNE 3.5 mph - 0.00 in Snow Light Snow
9:31 AM 10.4 °F 4.0 °F 6.8 °F 85% 30.33 in 2.0 mi ENE 3.5 mph - 0.00 in Snow Light Snow
9:54 AM 12.0 °F 5.9 °F 6.1 °F 77% 30.51 in 3.0 mi ENE 3.5 mph - 0.00 in Snow Light Snow
10:25 AM 12.2 °F 2.9 °F 6.8 °F 79% 30.32 in 1.5 mi NE 5.8 mph - 0.00 in Snow Light Snow
10:42 AM 12.2 °F 2.9 °F 5.0 °F 73% 30.31 in 2.5 mi ENE 5.8 mph - 0.00 in Snow Light Snow
10:54 AM 12.0 °F 1.5 °F 6.1 °F 77% 30.48 in 1.8 mi NE 6.9 mph - 0.00 in Snow Light Snow
11:06 AM 12.2 °F 1.7 °F 5.0 °F 73% 30.30 in 2.5 mi NE 6.9 mph - 0.00 in Snow Light Snow
11:14 AM 12.2 °F 1.7 °F 5.0 °F 73% 30.29 in 4.0 mi ENE 6.9 mph - 0.00 in   Haze
11:46 AM 10.4 °F 0.8 °F 5.0 °F 79% 30.28 in 10.0 mi ENE 5.8 mph - 0.00 in   Scattered Clouds
11:54 AM 10.9 °F 0.2 °F 5.0 °F 77% 30.46 in 10.0 mi ENE 6.9 mph - 0.00 in   Mostly Cloudy
12:54 PM 10.9 °F 0.2 °F 5.0 °F 77% 30.42 in 10.0 mi ENE 6.9 mph - N/A   Partly Cloudy
1:23 PM 10.4 °F 0.8 °F 3.2 °F 73% 30.23 in 10.0 mi NE 5.8 mph - N/A   Mostly Cloudy
2:54 PM 8.1 °F 1.4 °F 1.9 °F 76% 30.43 in 3.0 mi NE 3.5 mph - 0.00 in   Haze
3:22 PM 8.6 °F 0.1 °F 1.4 °F 73% 30.21 in 10.0 mi NE 4.6 mph - N/A   Scattered Clouds
3:54 PM 6.1 °F -0.9 °F 1.0 °F 80% 30.45 in 10.0 mi East 3.5 mph - N/A   Partly Cloudy
4:54 PM 1.9 °F -5.6 °F -0.9 °F 88% 30.46 in 10.0 mi South 3.5 mph - N/A   Clear
5:16 PM 1.4 °F -6.2 °F -0.4 °F 92% 30.21 in 10.0 mi SSW 3.5 mph - N/A   Mostly Cloudy
5:49 PM 1.4 °F - -2.2 °F 85% 30.21 in 2.5 mi Calm Calm - N/A   Overcast
5:54 PM 1.0 °F - -2.9 °F 83% 30.47 in 2.5 mi Calm Calm - N/A   Mostly Cloudy
6:04 PM -0.4 °F - -2.2 °F 92% 30.20 in 10.0 mi Calm Calm - N/A   Scattered Clouds
6:54 PM -4.0 °F -14.6 °F -9.0 °F 79% 30.50 in 10.0 mi West 4.6 mph - N/A   Clear
7:54 PM -7.1 °F -21.4 °F -11.9 °F 79% 30.53 in 10.0 mi WNW 6.9 mph - N/A   Mostly Cloudy
8:54 PM -2.0 °F -12.2 °F -8.0 °F 76% 30.49 in 10.0 mi WNW 4.6 mph - N/A   Overcast
9:54 PM -0.9 °F -12.7 °F -6.0 °F 79% 30.47 in 10.0 mi WNW 5.8 mph - N/A   Overcast
10:54 PM -0.9 °F -11.0 °F -7.1 °F 75% 30.45 in 10.0 mi WSW 4.6 mph - N/A   Clear
11:54 PM -6.0 °F -21.5 °F -11.0 °F 79% 30.46 in 10.0 mi WNW 8.1 mph - N/A   Clear